Location: Unspecified
(51.0950°N, 12.9690°E)
Time: 19:58:42
(UTC+00:00)

DX 1 - Visible Passes

Search period start: 22 April 2024 00:00
Search period end: 02 May 2024 00:00
Orbit: 610 x 620 km, 98.3° (Epoch: 22 April)

Date Brightness Start Highest point End Pass type
(mag) Time Alt. Az. Time Alt. Az. Time Alt. Az.
22 Apr ? 00:53:11 10° NNW 00:55:28 14° NW 00:56:32 13° WNW visible
22 Apr ? 21:56:36 10° NE 21:58:24 16° ENE 21:58:24 16° ENE visible
22 Apr ? 23:31:33 10° N 23:35:28 60° NW 23:35:28 60° NW visible
23 Apr ? 01:09:56 10° NW 01:10:59 11° NW 01:12:01 10° WNW visible
23 Apr ? 22:11:51 10° NE 22:14:23 21° ENE 22:14:23 21° ENE visible
23 Apr ? 23:47:21 10° N 23:51:27 46° WNW 23:51:27 46° WNW visible
24 Apr ? 22:27:16 10° NNE 22:30:21 29° ENE 22:30:21 29° ENE visible
25 Apr ? 00:03:13 10° N 00:07:08 34° WNW 00:07:25 33° WNW visible
25 Apr ? 22:42:47 10° NNE 22:46:19 41° ENE 22:46:19 41° ENE visible
26 Apr ? 00:19:08 10° N 00:22:43 26° WNW 00:23:23 24° WNW visible
26 Apr ? 22:58:22 10° NNE 23:02:16 58° ENE 23:02:16 58° ENE visible
27 Apr ? 00:35:08 10° NNW 00:38:15 20° WNW 00:39:19 18° WNW visible
27 Apr ? 21:40:20 10° ENE 21:41:08 11° ENE 21:41:08 11° ENE visible
27 Apr ? 23:14:00 10° NNE 23:18:12 82° NE 23:18:12 82° NE visible
28 Apr ? 00:51:16 10° NNW 00:53:44 15° NW 00:55:15 13° W visible
28 Apr ? 21:54:55 10° NE 21:57:03 16° E 21:57:03 16° E visible
28 Apr ? 23:29:41 10° N 23:34:01 69° WNW 23:34:07 68° W visible
29 Apr ? 01:07:46 10° NNW 01:09:10 11° NW 01:10:35 10° WNW visible
29 Apr ? 22:10:01 10° NE 22:12:57 21° E 22:12:57 21° E visible
29 Apr ? 23:45:25 10° N 23:49:37 49° WNW 23:50:01 47° W visible
30 Apr ? 22:25:20 10° NE 22:28:51 29° E 22:28:51 29° E visible
01 May ? 00:01:12 10° N 00:05:10 36° WNW 00:05:55 33° W visible
01 May ? 22:40:46 10° NNE 22:44:44 40° E 22:44:44 40° E visible
